Theta_e
348 348 349 349 349 348 349 350 350 350 350 348 345 345 344 344 343 341 342 337 338 339 340 342 342 343 344 349 350 349 349 346 345 345 345 344 344 345 344 340 341 346 344
350 348 349 350 350 351 350 350 351 350 348 346 344 344 344 343 344 343 342 344 338 338 339 340 341 342 344 345 347 350 351 348 345 345 346 346 346 345 344 340 342 344 342
350 350 350 351 351 352 353 352 352 350 347 343 343 343 344 346 346 346 346 345 346 346 343 340 341 341 342 342 343 346 342 339 344 345 348 348 348 346 345 341 342 339 340
350 350 349 351 352 351 350 350 350 348 345 341 341 341 343 344 346 346 346 346 347 347 348 348 347 344 344 344 344 345 344 338 346 347 348 349 349 348 342 340 343 341 337
349 350 350 351 353 350 349 349 350 352 348 344 342 342 343 343 346 345 348 349 349 349 350 351 349 345 342 341 341 342 339 342 347 347 346 346 346 342 342 344 344 340 339
349 350 350 352 352 350 348 350 354 352 354 351 345 344 346 347 348 348 348 348 349 351 349 349 348 347 344 337 339 339 338 340 346 345 342 339 342 343 344 344 342 338 337
350 352 348 350 351 351 352 351 351 351 350 353 350 347 348 349 349 349 349 347 348 349 348 347 348 347 348 344 341 338 339 346 344 342 342 342 343 344 344 344 341 335 334
353 351 351 349 352 349 352 352 353 350 350 351 350 347 347 346 350 347 347 348 348 348 348 348 350 350 352 350 349 344 346 346 343 343 343 342 343 344 343 342 342 343 341
351 352 353 351 353 349 347 352 351 352 348 350 352 349 348 349 346 347 348 347 349 348 350 350 350 349 353 352 349 348 347 346 342 343 343 342 344 343 342 341 342 344 344
350 350 352 353 354 351 352 350 350 352 353 347 349 348 350 349 348 346 345 348 349 348 350 348 349 350 351 353 351 349 347 348 343 344 343 343 342 341 341 341 342 343 344
351 351 353 353 353 352 353 352 355 352 351 351 349 348 349 348 350 350 350 346 347 344 345 347 350 350 351 351 351 354 348 347 344 345 344 344 343 343 343 341 341 342 343
349 352 352 354 353 352 353 351 355 354 355 354 352 350 348 349 350 350 350 347 344 344 344 345 348 349 350 351 352 349 348 347 346 346 346 345 344 344 343 341 340 341 341
348 349 353 354 352 354 353 352 354 354 354 353 354 350 350 350 349 348 347 346 347 345 346 344 345 347 350 352 353 348 350 349 348 348 347 346 344 344 344 341 340 340 340
348 348 351 353 352 352 353 354 353 351 351 353 354 354 349 348 349 349 349 348 349 346 345 350 347 350 351 352 352 348 353 350 344 345 347 347 345 344 343 341 339 338 339
348 351 352 352 351 351 352 352 351 352 350 353 352 353 354 348 348 349 349 350 351 352 349 350 350 350 350 350 352 351 352 345 343 343 344 345 344 343 342 339 337 336 337
351 351 351 352 352 351 352 352 350 351 353 352 351 352 353 349 349 348 351 350 350 352 355 349 350 351 352 350 350 351 352 348 347 343 343 344 344 342 338 337 335 333 330
353 354 353 353 352 352 353 353 351 351 352 353 354 353 354 355 353 349 350 350 352 352 353 350 350 351 354 353 352 353 351 350 348 345 342 343 342 340 337 336 334 330 326
353 353 354 354 351 351 351 352 351 350 352 353 352 354 354 353 355 354 353 353 353 353 353 352 352 353 353 354 353 353 350 348 349 344 342 342 340 338 336 333 328 324 322
354 352 352 354 354 351 353 351 351 351 352 352 352 353 354 353 353 353 354 353 353 353 354 354 352 348 351 351 351 351 352 351 349 342 338 337 339 337 334 331 327 321 319
354 353 352 352 353 353 352 352 351 352 352 351 352 354 352 353 353 354 354 353 353 353 352 352 350 350 350 350 350 350 349 350 349 346 341 338 337 337 333 328 325 320 317
353 354 353 353 352 352 351 352 350 351 352 352 353 354 352 353 351 349 350 352 351 352 349 349 349 350 349 350 351 348 348 349 347 344 344 343 340 338 330 326 324 324 321
353 353 352 353 353 352 350 349 348 351 351 353 351 353 353 350 348 347 348 347 347 349 350 350 349 349 349 348 344 342 342 343 346 340 340 340 338 337 333 323 325 319 313
353 353 353 353 353 353 351 350 348 348 351 352 352 352 353 350 350 350 345 342 341 340 340 344 346 346 343 336 336 336 330 332 334 329 335 338 332 331 327 327 324 317 318
354 353 353 353 354 353 352 352 349 349 351 351 352 354 352 348 346 348 348 347 343 342 341 338 336 333 329 327 328 329 331 333 332 324 320 334 329 329 324 322 324 322 319
353 353 353 352 353 353 353 352 349 351 351 351 351 350 348 342 339 340 346 345 340 336 334 336 331 331 333 332 331 327 322 326 324 325 322 324 329 327 327 325 320 321 315
351 351 352 352 352 352 353 351 347 350 350 345 344 337 339 336 337 336 340 341 339 330 330 332 332 331 330 330 324 323 324 324 328 330 323 322 322 321 323 326 324 320 317
Wind_Speed
9 8 6 5 4 3 3 2 2 2 1 1 1 2 1 2 2 2 1 4 5 6 6 7 10 11 13 14 17 17 17 17 15 13 12 13 11 10 9 8 7 6 4
8 6 5 4 3 3 4 2 2 1 2 2 1 2 2 2 2 1 1 3 6 7 8 9 12 13 14 15 16 16 15 17 16 14 13 12 12 10 9 8 7 5 4
6 4 4 3 4 4 4 2 2 1 2 3 1 1 3 2 2 0 2 3 5 10 9 12 14 15 16 16 15 14 13 17 16 13 11 11 10 9 9 10 8 4 3
4 2 3 2 3 3 2 2 4 3 1 1 1 2 2 2 2 3 4 5 6 7 10 12 13 14 15 14 13 13 15 13 13 9 8 9 8 8 9 9 8 6 3
4 3 3 1 2 2 2 3 4 5 2 1 3 2 2 3 3 4 6 6 6 8 8 10 14 14 12 11 11 11 12 10 6 6 6 6 6 6 8 8 7 6 5
6 4 4 1 1 1 1 3 4 5 4 2 6 2 5 5 5 7 8 8 7 8 8 8 9 10 13 7 7 10 8 8 4 4 5 4 3 5 7 6 6 6 6
7 5 6 3 2 2 2 3 4 3 3 4 5 5 5 7 7 7 8 8 6 7 8 8 7 7 6 8 6 5 4 4 3 3 4 4 3 5 7 6 6 6 7
8 7 5 6 3 4 3 3 4 5 4 3 7 8 4 4 3 3 4 3 3 5 5 5 5 6 5 4 5 4 2 2 3 3 3 4 5 6 7 7 7 8 8
9 9 8 7 4 4 6 4 5 4 6 3 3 5 6 5 10 3 1 2 4 5 6 6 4 5 5 4 5 3 2 2 2 4 5 6 6 6 7 8 9 8 8
10 10 10 9 7 6 5 5 6 6 5 6 3 2 3 5 6 6 3 2 5 5 6 8 4 4 4 3 5 5 4 3 2 3 6 7 7 8 8 9 10 10 9
12 11 10 10 9 7 6 5 5 5 4 5 4 4 4 5 4 7 8 8 9 8 7 6 5 5 4 5 5 6 5 3 3 4 6 7 8 8 9 10 10 10 10
13 13 12 12 11 8 7 5 6 5 5 5 5 4 6 7 7 6 7 10 11 10 9 7 5 7 6 4 3 2 4 4 6 6 7 8 8 8 10 10 10 10 10
13 13 14 13 13 12 9 8 7 7 8 7 6 6 6 8 7 9 9 10 10 9 5 8 6 7 6 4 3 5 7 7 8 8 9 9 9 8 9 10 11 11 10
12 12 14 14 13 12 10 9 8 9 10 9 8 8 8 9 8 8 10 10 8 10 9 1 8 4 5 5 6 7 6 9 9 10 11 9 9 9 9 10 10 10 11
14 12 13 14 15 14 13 11 11 11 10 10 10 10 10 10 10 9 10 10 11 8 7 8 9 8 7 8 8 8 8 11 10 9 9 8 8 8 8 8 9 10 11
15 14 13 14 14 15 15 13 14 14 13 12 12 11 11 11 11 12 9 11 11 9 6 11 8 8 8 10 8 7 7 9 10 9 9 8 7 7 6 7 8 9 11
17 15 15 15 15 15 16 15 16 15 12 14 14 13 13 13 13 13 11 11 12 10 10 14 10 10 10 8 7 7 7 7 7 9 8 7 5 5 5 6 6 7 8
19 19 18 15 18 18 18 17 16 16 15 15 15 14 15 13 15 15 13 12 13 10 12 12 13 10 8 8 8 8 7 8 5 8 7 5 5 5 5 5 6 6 7
22 21 20 19 17 19 17 17 18 18 17 16 15 14 14 14 16 14 13 13 9 9 8 10 12 11 8 11 9 10 7 5 4 7 6 7 5 4 5 5 5 7 8
22 23 23 22 21 20 19 17 16 16 17 16 15 14 14 15 15 12 9 9 9 8 7 8 11 11 9 9 8 10 8 1 1 3 1 1 6 7 4 5 5 5 6
22 23 24 25 24 23 22 20 19 18 17 17 16 13 14 14 14 10 8 7 6 8 9 9 9 9 9 7 6 7 7 4 5 5 4 5 3 3 6 6 5 5 6
23 22 24 26 26 27 26 23 21 17 16 15 14 11 9 10 10 8 6 6 5 4 7 9 7 6 4 3 3 6 7 6 1 7 5 4 6 3 4 3 5 5 4
24 25 24 25 26 25 26 26 25 20 18 15 13 12 11 8 8 5 5 3 2 1 3 3 6 3 1 2 2 2 4 3 4 5 4 3 5 4 3 6 5 6 7
27 28 27 27 25 25 27 27 26 21 17 16 13 13 12 9 9 9 8 7 3 2 1 2 1 2 3 3 4 3 2 3 3 6 7 2 3 4 4 5 8 8 9
27 27 29 28 26 25 26 28 26 19 15 13 11 11 11 10 10 10 7 8 6 3 1 2 4 4 3 3 3 4 6 3 2 1 7 4 4 6 2 0 2 7 6
30 30 30 30 29 27 28 29 28 21 20 17 14 13 17 11 9 8 7 9 8 6 6 8 8 7 5 4 5 4 5 3 3 1 6 7 7 7 4 2 1 2 5
Wind_Direction
119 116 106 111 111 122 115 120 102 72 32 357 340 264 212 127 114 125 152 272 238 237 250 263 272 279 282 284 286 295 300 303 306 303 304 293 289 295 306 314 313 304 284
122 114 106 100 102 113 108 104 56 8 311 276 45 24 175 141 139 121 169 270 287 269 264 272 276 281 285 289 295 296 299 302 302 299 307 291 287 291 307 315 320 316 301
123 110 102 85 90 101 94 96 336 252 264 217 172 140 165 171 139 119 275 277 279 294 298 284 282 284 284 284 286 293 299 307 312 298 302 289 276 288 305 312 311 313 295
153 128 135 89 82 101 89 61 28 359 81 172 140 173 171 232 248 265 268 274 283 296 300 301 304 295 291 283 282 286 302 303 317 308 317 287 278 291 305 307 302 296 282
175 161 160 109 72 78 41 338 39 21 86 160 202 207 252 255 247 259 276 280 280 290 298 296 309 321 321 284 279 290 300 307 311 306 315 297 285 302 313 306 294 287 283
187 183 187 208 1 330 354 0 1 15 12 328 304 299 281 277 271 275 280 285 289 291 296 297 304 312 319 291 271 298 280 297 289 309 323 318 333 348 340 324 307 288 280
184 195 208 225 273 287 331 323 320 317 336 355 291 243 261 264 266 275 283 297 299 297 301 298 296 305 307 316 318 303 259 265 285 333 330 321 339 351 356 351 321 303 284
202 207 213 222 240 266 292 304 301 308 282 334 323 298 292 290 128 338 313 315 318 325 332 315 278 286 299 282 271 285 251 270 314 343 344 347 338 339 346 349 337 312 292
218 225 225 218 219 251 256 266 268 278 299 285 310 310 310 336 343 136 272 346 346 340 341 336 300 272 278 282 288 287 319 318 322 342 351 355 345 343 348 348 343 332 309
216 221 220 217 219 235 250 252 251 256 270 286 281 272 295 314 320 316 265 42 310 340 343 331 346 302 274 295 310 262 279 306 318 337 339 344 347 344 346 346 340 334 328
215 218 216 220 222 232 231 227 234 234 241 271 276 286 280 275 267 296 315 340 317 336 336 338 348 351 306 275 304 295 281 291 303 324 339 335 334 339 340 344 340 331 325
221 220 220 222 224 227 218 207 215 219 233 244 261 266 278 300 308 306 304 317 323 315 336 306 324 338 346 327 318 320 312 303 309 313 326 328 323 326 336 339 338 330 325
223 218 219 224 225 221 217 210 213 223 233 241 244 270 272 275 289 292 296 302 316 313 314 320 346 325 332 337 323 332 319 322 320 307 310 311 314 318 326 332 338 338 335
231 226 226 228 228 233 233 228 224 238 234 239 246 255 275 278 278 283 288 307 305 302 315 1 330 346 334 326 313 358 327 323 332 320 313 306 307 316 327 337 347 350 350
245 236 231 230 226 229 236 239 244 240 248 242 248 253 259 270 273 276 277 285 301 301 307 60 325 325 326 311 299 320 319 324 333 343 336 326 323 328 334 346 355 1 5
241 240 232 229 227 230 234 239 248 244 241 242 246 248 255 264 266 263 271 264 262 308 297 304 323 321 319 308 301 314 302 336 329 339 341 337 335 342 352 357 1 10 15
236 234 233 229 231 235 237 236 240 258 246 246 248 253 253 256 259 264 254 263 273 270 260 288 312 314 302 302 297 298 302 305 307 323 340 341 353 357 351 352 357 7 13
236 237 235 233 233 235 238 235 241 243 244 254 259 258 261 258 251 256 262 269 269 262 271 290 295 307 293 295 296 298 299 305 305 307 339 344 350 349 350 355 5 8 10
229 235 237 234 228 233 237 241 242 246 248 249 248 259 265 264 264 267 266 264 266 276 261 261 292 300 327 301 307 293 291 304 290 316 6 0 355 347 349 350 3 9 3
232 236 233 233 237 236 234 234 238 245 248 249 254 259 262 260 264 263 248 259 266 276 274 281 297 300 293 311 302 299 314 274 356 338 342 318 356 355 353 340 345 0 8
236 241 243 240 235 233 237 235 238 241 245 250 259 256 258 252 248 233 249 247 250 255 279 285 300 308 318 328 317 308 298 289 84 50 11 42 21 20 18 12 351 331 324
237 241 244 239 241 239 236 234 232 235 238 244 257 258 241 233 226 229 217 241 236 271 282 296 310 292 319 330 340 327 322 329 201 44 348 41 38 35 355 15 336 338 340
240 235 238 238 236 241 243 234 232 229 234 240 242 237 211 206 186 189 219 230 248 269 260 294 297 314 61 351 333 19 33 29 41 13 43 97 28 37 349 321 330 311 312
239 234 234 232 233 233 237 234 230 224 231 232 223 205 200 188 189 191 198 180 154 100 7 332 110 98 100 74 72 88 64 79 47 27 32 38 351 349 336 322 323 327 320
238 230 229 231 230 234 228 228 223 216 211 189 179 175 178 177 179 179 196 166 148 119 73 143 144 131 113 97 101 100 57 83 63 341 14 5 357 337 319 260 316 329 327
244 237 232 232 233 228 226 223 211 205 178 172 166 169 169 166 170 173 179 176 158 136 118 107 107 115 108 94 92 92 86 68 19 42 20 339 347 357 325 133 75 350 321